DW6386 Weather Reports


time (UTC)temp
C
wind
direction
speed
KPH
gust
KPH
rain 1hr
cm
rain 24hr
cm
rain mn
cm
humidity
%
barometer
mb
20260506083057 19 30 3.2 4.8 0.00 0.00 0.00 69 1008.0
20260506081600 19 68 0.0 4.8 0.00 0.00 0.00 68 1008.0
20260506073052 19 39 3.2 9.7 0.00 0.00 0.00 65 1008.0
20260506071550 20 63 1.6 9.7 0.00 0.00 0.00 65 1007.9
20260506061543 20 68 0.0 6.4 0.00 0.00 0.00 64 1008.5
20260506044608 19 42 3.2 8.0 0.00 0.00 0.00 62 1009.6
20260506043032 20 51 1.6 9.7 0.00 0.00 0.00 62 1009.4
20260506041528 20 32 3.2 11.3 0.00 0.00 0.00 61 1009.4
20260506040028 20 116 1.6 6.4 0.00 0.00 0.00 60 1009.3
20260506034546 20 72 1.6 11.3 0.00 0.00 0.00 59 1009.6
20260506033023 19 63 0.0 0.0 0.00 0.00 0.00 59 1009.4
20260506031523 20 64 3.2 8.0 0.00 0.00 0.00 58 1009.7
20260506030024 20 79 0.0 6.4 0.00 0.00 0.00 58 1010.0
20260506024522 20 30 0.0 9.7 0.00 0.00 0.00 57 1010.0
20260506023123 20 61 3.2 9.7 0.00 0.00 0.00 57 1009.7
20260506021520 20 68 1.6 6.4 0.00 0.00 0.00 57 1009.7
20260506020019 20 77 0.0 1.6 0.00 0.00 0.00 57 1009.4
20260506014526 20 72 0.0 3.2 0.00 0.00 0.00 56 1009.6
20260506013018 20 87 1.6 6.4 0.00 0.00 0.00 55 1009.5
20260506011518 20 61 1.6 6.4 0.00 0.00 0.00 56 1009.1
20260506010017 19 93 0.0 3.2 0.00 0.00 0.00 56 1009.0
20260506004531 20 70 0.0 1.6 0.00 0.00 0.00 54 1008.9
20260506003029 20 25 0.0 8.0 0.00 0.00 0.00 52 1008.8
20260506001515 21 72 0.0 6.4 0.00 0.00 0.00 50 1008.9
20260506000015 21 53 1.6 9.7 0.00 0.00 0.00 48 1009.4
20260505234525 22 56 1.6 12.9 0.00 0.00 0.00 47 1009.4
20260505233013 22 67 9.7 20.9 0.00 0.00 0.00 45 1009.4
20260505231516 22 41 6.4 25.7 0.00 0.00 0.00 46 1009.3
20260505230013 23 73 4.8 16.1 0.00 0.00 0.00 45 1009.1
20260505224512 23 30 9.7 27.4 0.00 0.00 0.00 43 1008.9
20260505223009 23 28 11.3 22.5 0.00 0.00 0.00 45 1008.9
20260505221512 23 51 4.8 17.7 0.00 0.00 0.00 47 1008.8
20260505220016 23 20 1.6 8.0 0.00 0.00 0.00 52 1009.0
20260505214504 23 26 3.2 14.5 0.00 0.00 0.00 50 1009.2
20260505213002 23 59 4.8 16.1 0.00 0.00 0.00 48 1009.3
20260505211502 23 45 8.0 22.5 0.00 0.00 0.00 49 1009.5
20260505210100 24 44 4.8 16.1 0.00 0.00 0.00 49 1009.4
20260505204600 24 25 6.4 14.5 0.00 0.00 0.00 47 1009.5
20260505203055 24 27 6.4 14.5 0.00 0.00 0.00 47 1009.9
20260505201551 25 53 6.4 14.5 0.00 0.00 0.00 45 1010.2
20260505200048 25 34 1.6 14.5 0.00 0.00 0.00 50 1010.4
20260505194546 24 15 3.2 12.9 0.00 0.00 0.00 53 1010.6
20260505193045 23 80 6.4 17.7 0.00 0.00 0.00 52 1010.8
20260505191550 23 234 1.6 6.4 0.00 0.00 0.00 57 1010.9
20260505190037 22 272 0.0 4.8 0.00 0.00 0.00 58 1011.3
20260505184532 22 11 3.2 16.1 0.00 0.00 0.00 56 1011.5
20260505183030 22 41 1.6 14.5 0.00 0.00 0.00 55 1011.8
20260505181528 22 277 4.8 16.1 0.00 0.00 0.00 56 1012.0
20260505180041 22 32 4.8 12.9 0.00 0.00 0.00 56 1012.3
20260505174532 22 343 4.8 14.5 0.00 0.00 0.00 59 1012.6
20260505173023 21 20 4.8 14.5 0.00 0.00 0.00 61 1012.8
20260505171529 22 55 6.4 11.3 0.00 0.00 0.00 60 1013.1
20260505170027 21 276 1.6 14.5 0.00 0.00 0.00 63 1013.5
20260505164519 21 225 3.2 9.7 0.00 0.00 0.00 63 1013.5
20260505163017 20 60 1.6 6.4 0.00 0.00 0.00 63 1013.6
20260505161514 20 276 3.2 6.4 0.00 0.00 0.00 62 1013.7
20260505153010 20 46 1.6 8.0 0.00 0.00 0.00 63 1013.6
20260505151507 19 352 1.6 9.7 0.00 0.00 0.00 65 1013.7
20260505124538 13 194 0.0 0.0 0.00 0.00 0.00 94 1013.6
20260505123054 12 207 0.0 1.6 0.00 0.00 0.00 95 1013.5
20260505121535 12 106 0.0 0.0 0.00 0.00 0.00 97 1013.5
20260505120033 10 105 0.0 0.0 0.00 0.00 0.00 97 1013.3
20260505114531 9 119 0.0 0.0 0.00 0.00 0.00 97 1013.2
20260505113035 8 120 0.0 0.0 0.00 0.00 0.00 97 1013.0
20260505111547 8 120 0.0 0.0 0.00 0.00 0.00 96 1012.7
20260505101519 8 120 0.0 0.0 0.00 0.00 0.00 95 1012.5
20260505100022 8 120 0.0 0.0 0.00 0.00 0.00 96 1012.5
20260505094517 8 119 0.0 0.0 0.00 0.00 0.00 95 1012.5
20260505093014 8 119 0.0 0.0 0.00 0.00 0.00 95 1012.3
20260505091511 8 119 0.0 0.0 0.00 0.00 0.00 95 1012.4
20260505090010 9 119 0.0 0.0 0.00 0.00 0.00 95 1012.4
20260505084516 9 119 0.0 0.0 0.00 0.00 0.00 95 1012.2